• En España
  • Lista de países
  • Para 7 días
  • Temperatura del agua
  • Mapa Satelital
  • El tiempo en el mapa
  • Informadores
  • user-avatar
    Iniciar sesión

    Tiempo cada hora Sao Pedro da Cova

    Hoy, 23 Enero, Martes

    Tiempo Temperatura Precipitaciones Viento Presión Humedad
    00:00 +10°C° 0 mm 1 mps 762 mmHg 92%
    01:00 +10°C° 0 mm 1 mps 762 mmHg 92%
    02:00 +10°C° 0 mm 1 mps 762 mmHg 92%
    03:00 +10°C° 0 mm 1 mps 762 mmHg 92%
    04:00 +10°C° 0 mm 1 mps 762 mmHg 92%
    05:00 +10°C° 0 mm 1 mps 761 mmHg 92%
    06:00 +10°C° 0 mm 1 mps 762 mmHg 90%
    07:00 +10°C° 0 mm 1 mps 762 mmHg 89%
    08:00 +11°C° 0 mm 1 mps 762 mmHg 87%
    09:00 +13°C° 0 mm 1 mps 762 mmHg 80%
    10:00 +15°C° 0 mm 1 mps 762 mmHg 73%
    11:00 +18°C° 0 mm 1 mps 762 mmHg 66%
    12:00 +18°C° 0 mm 1 mps 761 mmHg 65%
    13:00 +18°C° 0 mm 1 mps 761 mmHg 63%
    14:00 +19°C° 0 mm 1 mps 761 mmHg 62%
    15:00 +16°C° 0 mm 1 mps 761 mmHg 71%
    16:00 +14°C° 0 mm 1 mps 760 mmHg 79%
    17:00 +13°C° 0 mm 1 mps 760 mmHg 87%
    18:00 +12°C° 0 mm 1 mps 761 mmHg 89%
    19:00 +11°C° 0 mm 1 mps 761 mmHg 90%
    20:00 +11°C° 0 mm 1 mps 761 mmHg 92%
    21:00 +11°C° 0 mm 1 mps 761 mmHg 92%
    22:00 +10°C° 0 mm 1 mps 761 mmHg 92%
    23:00 +10°C° 0 mm 1 mps 761 mmHg 92%

    Mañana, 24 Enero, Miércoles

    Tiempo Temperatura Precipitaciones Viento Presión Humedad
    00:00 +10°C° 0 mm 1 mps 760 mmHg 92%
    01:00 +10°C° 0 mm 1 mps 760 mmHg 92%
    02:00 +9°C° 0 mm 1 mps 760 mmHg 92%
    03:00 +9°C° 0 mm 1 mps 760 mmHg 92%
    04:00 +9°C° 0 mm 1 mps 759 mmHg 92%
    05:00 +9°C° 0 mm 1 mps 759 mmHg 92%
    06:00 +8°C° 0 mm 2 mps 759 mmHg 91%
    07:00 +9°C° 0 mm 2 mps 760 mmHg 90%
    08:00 +9°C° 0 mm 2 mps 760 mmHg 90%
    09:00 +12°C° 0 mm 2 mps 760 mmHg 83%
    10:00 +12°C° 0 mm 3 mps 760 mmHg 77%
    11:00 +14°C° 0 mm 3 mps 759 mmHg 71%
    12:00 +14°C° 0 mm 3 mps 759 mmHg 70%
    13:00 +15°C° 0 mm 4 mps 758 mmHg 69%
    14:00 +15°C° 0 mm 4 mps 758 mmHg 69%
    15:00 +14°C° 0,1 mm 4 mps 757 mmHg 75%
    16:00 +13°C° 0,1 mm 4 mps 757 mmHg 81%
    17:00 +12°C° 0,1 mm 4 mps 757 mmHg 88%
    18:00 +12°C° 0,3 mm 4 mps 757 mmHg 89%
    19:00 +12°C° 0,3 mm 4 mps 757 mmHg 90%
    20:00 +12°C° 0,3 mm 4 mps 757 mmHg 91%
    21:00 +12°C° 0,6 mm 4 mps 757 mmHg 92%
    22:00 +12°C° 0,6 mm 4 mps 757 mmHg 94%
    23:00 +12°C° 0,6 mm 3 mps 757 mmHg 95%

    Pasado mañana, 25 Enero, Jueves

    Tiempo Temperatura Precipitaciones Viento Presión Humedad
    00:00 +12°C° 0,4 mm 3 mps 757 mmHg 95%
    01:00 +12°C° 0,4 mm 3 mps 757 mmHg 95%
    02:00 +12°C° 0,4 mm 3 mps 757 mmHg 95%
    03:00 +11°C° 0,1 mm 3 mps 756 mmHg 93%
    04:00 +11°C° 0,1 mm 3 mps 756 mmHg 92%
    05:00 +11°C° 0,1 mm 3 mps 756 mmHg 91%
    06:00 +10°C° 0,3 mm 3 mps 756 mmHg 90%
    07:00 +10°C° 0,3 mm 3 mps 757 mmHg 89%
    08:00 +10°C° 0,3 mm 4 mps 757 mmHg 88%
    09:00 +10°C° 0,4 mm 4 mps 757 mmHg 85%
    10:00 +9°C° 0,4 mm 5 mps 757 mmHg 82%
    11:00 +10°C° 0,4 mm 5 mps 757 mmHg 79%
    12:00 +9°C° 0,4 mm 6 mps 757 mmHg 78%
    13:00 +9°C° 0,4 mm 6 mps 757 mmHg 77%
    14:00 +9°C° 0,4 mm 6 mps 757 mmHg 76%
    15:00 +8°C° 0,2 mm 6 mps 757 mmHg 78%
    16:00 +7°C° 0,2 mm 6 mps 758 mmHg 79%
    17:00 +7°C° 0,2 mm 6 mps 758 mmHg 81%
    18:00 +6°C° 0,1 mm 5 mps 759 mmHg 82%
    19:00 +6°C° 0,1 mm 5 mps 759 mmHg 83%
    20:00 +5°C° 0,1 mm 5 mps 760 mmHg 84%
    21:00 +5°C° 0,2 mm 4 mps 760 mmHg 84%
    22:00 +5°C° 0,2 mm 4 mps 760 mmHg 85%
    23:00 +5°C° 0,2 mm 4 mps 760 mmHg 86%

    26 Enero, Viernes

    Tiempo Temperatura Precipitaciones Viento Presión Humedad
    00:00 +4°C° 0,2 mm 4 mps 761 mmHg 87%
    01:00 +4°C° 0,2 mm 4 mps 761 mmHg 88%
    02:00 +4°C° 0,2 mm 4 mps 761 mmHg 89%
    03:00 +4°C° 0 mm 3 mps 761 mmHg 89%
    04:00 +4°C° 0 mm 3 mps 762 mmHg 89%
    05:00 +4°C° 0 mm 3 mps 762 mmHg 89%
    06:00 +4°C° 0 mm 3 mps 763 mmHg 88%
    07:00 +4°C° 0 mm 3 mps 763 mmHg 87%
    08:00 +5°C° 0 mm 3 mps 764 mmHg 86%
    09:00 +7°C° 0 mm 3 mps 764 mmHg 79%
    10:00 +8°C° 0 mm 4 mps 764 mmHg 72%
    11:00 +11°C° 0 mm 4 mps 765 mmHg 65%
    12:00 +11°C° 0 mm 4 mps 764 mmHg 64%
    13:00 +11°C° 0 mm 4 mps 764 mmHg 62%
    14:00 +12°C° 0 mm 4 mps 764 mmHg 60%
    15:00 +11°C° 0 mm 4 mps 764 mmHg 66%
    16:00 +10°C° 0 mm 4 mps 765 mmHg 72%
    17:00 +7°C° 0 mm 4 mps 765 mmHg 79%
    18:00 +7°C° 0 mm 4 mps 765 mmHg 81%
    19:00 +6°C° 0 mm 4 mps 766 mmHg 84%
    20:00 +7°C° 0 mm 3 mps 766 mmHg 86%
    21:00 +5°C° 0 mm 3 mps 767 mmHg 86%
    22:00 +5°C° 0 mm 3 mps 767 mmHg 86%
    23:00 +5°C° 0 mm 3 mps 767 mmHg 86%

    27 Enero, Sábado

    Tiempo Temperatura Precipitaciones Viento Presión Humedad
    00:00 +5°C° 0 mm 3 mps 767 mmHg 86%
    01:00 +4°C° 0 mm 3 mps 767 mmHg 85%
    02:00 +4°C° 0 mm 3 mps 767 mmHg 84%
    03:00 +4°C° 0 mm 3 mps 767 mmHg 84%
    04:00 +4°C° 0 mm 3 mps 767 mmHg 83%
    05:00 +4°C° 0 mm 3 mps 767 mmHg 82%
    06:00 +5°C° 0 mm 3 mps 767 mmHg 81%
    07:00 +5°C° 0 mm 3 mps 767 mmHg 80%
    08:00 +7°C° 0 mm 3 mps 767 mmHg 79%
    09:00 +9°C° 0 mm 3 mps 767 mmHg 73%
    10:00 +11°C° 0 mm 4 mps 767 mmHg 67%
    11:00 +13°C° 0 mm 4 mps 767 mmHg 61%
    12:00 +13°C° 0 mm 4 mps 767 mmHg 59%
    13:00 +14°C° 0 mm 4 mps 766 mmHg 58%
    14:00 +14°C° 0 mm 5 mps 766 mmHg 57%
    15:00 +13°C° 0 mm 5 mps 766 mmHg 63%
    16:00 +11°C° 0 mm 4 mps 766 mmHg 69%
    17:00 +10°C° 0 mm 4 mps 766 mmHg 75%
    18:00 +8°C° 0 mm 4 mps 766 mmHg 77%
    19:00 +8°C° 0 mm 4 mps 766 mmHg 80%
    20:00 +7°C° 0 mm 4 mps 766 mmHg 83%
    21:00 +7°C° 0 mm 4 mps 766 mmHg 84%
    22:00 +7°C° 0 mm 4 mps 766 mmHg 85%
    23:00 +8°C° 0 mm 3 mps 766 mmHg 86%

    28 Enero, Domingo

    Tiempo Temperatura Precipitaciones Viento Presión Humedad
    00:00 +8°C° 0 mm 3 mps 765 mmHg 87%
    01:00 +7°C° 0 mm 4 mps 765 mmHg 88%
    02:00 +7°C° 0 mm 4 mps 764 mmHg 89%
    03:00 +7°C° 0 mm 4 mps 764 mmHg 89%
    04:00 +7°C° 0 mm 4 mps 764 mmHg 90%
    05:00 +7°C° 0 mm 4 mps 764 mmHg 90%
    06:00 +7°C° 0 mm 4 mps 764 mmHg 89%
    07:00 +8°C° 0 mm 4 mps 764 mmHg 87%
    08:00 +8°C° 0 mm 4 mps 764 mmHg 85%
    09:00 +11°C° 0 mm 4 mps 764 mmHg 76%
    10:00 +14°C° 0 mm 4 mps 763 mmHg 67%
    11:00 +17°C° 0 mm 4 mps 763 mmHg 58%
    12:00 +17°C° 0 mm 4 mps 763 mmHg 57%
    13:00 +18°C° 0 mm 4 mps 762 mmHg 57%
    14:00 +18°C° 0 mm 4 mps 762 mmHg 56%
    15:00 +17°C° 0 mm 4 mps 762 mmHg 62%
    16:00 +14°C° 0 mm 3 mps 762 mmHg 68%
    17:00 +13°C° 0 mm 2 mps 762 mmHg 74%
    18:00 +13°C° 0 mm 2 mps 763 mmHg 76%
    19:00 +12°C° 0 mm 2 mps 763 mmHg 78%
    20:00 +10°C° 0 mm 2 mps 763 mmHg 80%
    21:00 +10°C° 0 mm 2 mps 763 mmHg 81%
    22:00 +9°C° 0 mm 2 mps 763 mmHg 82%
    23:00 +9°C° 0 mm 3 mps 763 mmHg 82%
    Mostrar más